Miscellaneous Local Product
Issued by NWS North Platte, NE

Home | Current Version | Previous Version | Text Only | Print | Product List | Glossary On
Versions: 1 2 3 4 5 6 7 8 9 10 11 12 13 14 15 16 17 18 19 20 21 22 23 24 25 26 27 28 29 30 31 32 33 34 35 36 37 38 39 40 41 42 43 44 45 46 47 48 49 50
278
AXUS43 KLBF 191710
MISLBF


WESTERN AND NORTH CENTRAL NEBRASKA HOURLY WEATHER ROUNDUP
NATIONAL WEATHER SERVICE NORTH PLATTE NE
1100 AM CST SUN FEB 19 2017

NOTE: "FAIR" INDICATES FEW OR NO CLOUDS BELOW 12,000 FEET WITH NO
SIGNIFICANT WEATHER AND/OR OBSTRUCTIONS TO VISIBILITY.

NOTE: STATIONS NOT REPORTING VARIABLES SUCH AS SKY/WEATHER OR
PRESSURE ARE PROVIDED BY RAWS AND APRS NETWORKS AND ARE NOT UNDER
NATIONAL WEATHER SERVICE QUALITY CONTROL.

...OBSERVATIONS IN AND NEAR THE EASTERN PANHANDLE OF NEBRASKA...

CITY           SKY/WX    TMP DP  RH WIND       PRES   REMARKS
PINE RIDGE     SUNNY     52  35  52 SW8       29.60S
CHADRON        SUNNY     58  35  42 W3        29.59F
ALLIANCE       CLOUDY    46  31  55 SW6       29.65S
SIDNEY         CLOUDY    53  32  44 VRB3      29.68S
CRESCENT LAKE    N/A     47  31  53 S7          N/A
$$

...OBSERVATIONS IN NORTHERN NEBRASKA AND FAR SOUTHERN SOUTH DAKOTA...

CITY           SKY/WX    TMP DP  RH WIND       PRES   REMARKS
WINNER         FAIR      58  39  49 S18G28    29.62R
VALENTINE      MOSUNNY   54  36  50 SW15      29.64S
THEDFORD       MOSUNNY   56  40  55 S13G23    29.69S
AINSWORTH      MOSUNNY   56  42  60 S24       29.65F
O`NEILL        MOSUNNY   62  45  53 S18G25    29.71F
ORD            PTSUNNY   57  47  69 S24       29.74S
BROKEN BOW     MOSUNNY   56  47  71 S20G28    29.72F
VALENTINE NWR    N/A     51  39  63 S17         N/A
HALSEY           N/A     55  42  61 S8G20       N/A
CHAMBERS         N/A     59  46  60 SW9         N/A
EWING            N/A     55  50  84 S7          N/A
$$

...OBSERVATIONS IN SOUTHWEST NEBRASKA AND FAR NORTHEAST COLORADO...

CITY           SKY/WX    TMP DP  RH WIND       PRES   REMARKS
HOLYOKE        FAIR      52  34  50 S6        29.71S
IMPERIAL       CLOUDY    52  36  54 S10       29.72S
OGALLALA       CLOUDY    55  36  49 S10       29.69S
NORTH PLATTE   MOSUNNY   57  43  59 S10       29.72F
MCCOOK         MOSUNNY   54  46  74 S13       29.75S
LEXINGTON      PTSUNNY   56  47  72 S13       29.76S
STAPLETON        N/A     55  43  64 SW3G14      N/A
GOTHENBURG       N/A     56  44  64 S6          N/A
CALLAWAY         N/A     54  47  76 S24         N/A
$$

...OBSERVATIONS IN CENTRAL LINCOLN COUNTY AREA...

CITY           SKY/WX    TMP DP  RH WIND       PRES   REMARKS
N.P. AIRPORT   MOSUNNY   57  43  59 S10       29.72F
N.P. DOWNTOWN    N/A     56  45  66 S3          N/A
N.P. SOUTHEAST   N/A     55  43  65 S6G14       N/A
N.P. HILLCREST   N/A     55  44  67 S13G20      N/A
$$

...SOME OBSERVATIONS FROM AROUND THE REGION...

CITY           SKY/WX    TMP DP  RH WIND       PRES   REMARKS
LARAMIE        CLOUDY    38  27  64 CALM      29.73R
CHEYENNE       CLOUDY    51  27  39 S9        29.70S
DENVER         CLOUDY    54  24  31 CALM      29.69F
AKRON          CLOUDY    54  29  38 SW10      29.70R
SCOTTSBLUFF    CLOUDY    44  30  57 CALM      29.67S
RAPID CITY     CLOUDY    55  34  45 SE5       29.53F
BISMARCK       CLOUDY    39  34  82 E10       29.57F WCI  32
PIERRE         SUNNY     54  38  54 S16       29.56F
SIOUX FALLS    CLOUDY    52  44  74 S13       29.79S
OMAHA          CLOUDY    59  48  67 S17       29.88F
GRAND ISLAND   MOSUNNY   58  51  78 S16       29.81S
KANSAS CITY    MOSUNNY   64  52  64 S12       29.98R
WICHITA        CLOUDY    53  53 100 S12       29.92S FOG
OKLAHOMA CITY  CLOUDY    62  58  86 S14       29.93S
DALLAS         CLOUDY    69  66  90 SE13      29.91S FOG
AMARILLO       PTSUNNY   53  50  89 SE16      29.85R
DODGE CITY     SUNNY     59  48  67 S15       29.85F
HAYS           CLOUDY    54  50  86 S13       29.85F
GOODLAND       CLOUDY    60  37  42 S22G30    29.73R
$$




USA.gov is the U.S. government's official web portal to all federal, state and local government web resources and services.